Home > Weather > Mazari Sharif > Past weeks

Flag for Afghanistan Weather for the Past 2 Weeks in Mazari Sharif, Afghanistan

Now
55 °F

Passing clouds.


Feels Like: 55 °F
Forecast: 40 / 66 °F
Wind: 5 mph from Northeast

Location: Termez Airport

Current Time: Feb 6, 2016 at 12:18:31 PM

Latest Report: Feb 6, 2016 at 11:30 AM


Visibility: N/A

Pressure: 30.15 "Hg

Humidity: 51%

Dew point: 37 °F

Location of Mazari SharifLocation

Historic Weather in Mazari Sharif — Graph

°F

Mazari Sharif Temperature Yesterday

Maximum temperature yesterday: 54 °F (at 2:30 PM)
Minimum temperature yesterday: 37 °F (at 10:00 PM)
Average temperature yesterday: 44 °F

High & Low Weather Summary for the Past Weeks

 TemperatureHumidityPressure
High68 °F (Jan 24, 2:00 PM)100% (Jan 26, 10:00 AM)30.51 "Hg (Jan 26, 10:00 AM)
Low27 °F (Jan 31, 5:30 AM)18% (Jan 24, 3:00 PM)29.80 "Hg (Jan 25, 4:00 PM)
Average43 °F76%30.22 "Hg
* Reported Jan 22 10:30 AM — Feb 6 11:00 AM, Mazari Sharif, Weather by CustomWeather, © 2016

Note: Actual official high and low records may vary slightly from our data, if they occured in-between our weather recording intervals... More about our weather records

Advertising

Mazari Sharif Weather History for the Previous 24 Hours

 ConditionsComfort  
Time TempWeatherWind HumidityBarometerVisibility
11:00 AM
Sat, Feb 6
54 °FPassing clouds.3 mph54%30.15 "HgN/A
10:30 AM50 °FClear.5 mph58%30.18 "Hg6 mi
10:00 AM46 °FClear.7 mph71%30.18 "Hg4 mi
9:30 AM43 °FFog.5 mph81%30.18 "Hg3 mi
9:00 AM39 °FFog.5 mph93%30.18 "Hg2 mi
8:30 AM36 °FFog.6 mph100%30.18 "Hg2 mi
8:00 AM34 °FFog.5 mph93%30.18 "Hg2 mi
7:30 AM32 °FIce fog.5 mph100%30.18 "Hg2 mi
7:00 AM30 °FIce fog.6 mph100%30.18 "Hg1 mi
6:30 AM32 °FIce fog.6 mph100%30.18 "Hg1 mi
6:00 AM32 °FIce fog.6 mph100%30.21 "Hg1 mi
5:00 AM34 °FFog.6 mph100%30.21 "Hg1 mi
4:30 AM32 °FIce fog.6 mph100%30.21 "Hg1 mi
4:00 AM34 °FFog.5 mph100%30.21 "Hg1 mi
3:30 AM34 °FFog.7 mph100%30.21 "Hg1 mi
3:00 AM34 °FFog.6 mph100%30.21 "Hg1 mi
2:30 AM32 °FIce fog.6 mph100%30.24 "Hg1 mi
2:00 AM34 °FFog.5 mph100%30.24 "Hg1 mi
1:30 AM34 °FFog.6 mph100%30.24 "Hg1 mi
1:00 AM34 °FFog.7 mph100%30.27 "Hg1 mi
12:30 AM34 °FFog.6 mph100%30.27 "Hg1 mi
12:00 AM36 °FFog.3 mph93%30.27 "Hg1 mi
11:30 PM
Fri, Feb 5
37 °FFog.2 mph93%30.27 "Hg2 mi
11:00 PM37 °FFog.2 mph93%30.30 "Hg3 mi
10:30 PM39 °FFog.2 mph93%30.30 "Hg2 mi
10:00 PM37 °FFog.2 mph93%30.30 "Hg2 mi
9:30 PM39 °FClear.3 mph81%30.33 "Hg4 mi
9:00 PM43 °FClear.2 mph71%30.33 "HgN/A
8:30 PM43 °FFog.2 mph76%30.33 "Hg3 mi
8:00 PM45 °FFog.2 mph71%30.33 "Hg3 mi
7:30 PM45 °FClear.3 mph71%30.33 "Hg4 mi
7:00 PM46 °FFog.2 mph71%30.33 "Hg2 mi
6:30 PM46 °FClear.2 mph66%30.33 "Hg10 mi
6:00 PM48 °FClear.3 mph62%30.33 "Hg10 mi
5:30 PM48 °FClear.3 mph66%30.33 "Hg10 mi
5:00 PM52 °FSunny.3 mph58%30.33 "Hg10 mi
4:30 PM54 °FPassing clouds.5 mph54%30.33 "HgN/A
4:00 PM54 °FPassing clouds.6 mph54%30.33 "HgN/A
3:30 PM54 °FPassing clouds.3 mph54%30.36 "HgN/A
3:00 PM54 °FScattered clouds.3 mph54%30.36 "HgN/A
2:30 PM54 °FScattered clouds.3 mph54%30.36 "HgN/A
2:00 PM52 °FScattered clouds.5 mph58%30.36 "HgN/A
1:30 PM52 °FScattered clouds.6 mph62%30.39 "HgN/A
1:00 PM50 °FPartly sunny.5 mph62%30.42 "HgN/A
12:30 PM50 °FPartly sunny.5 mph67%30.42 "HgN/A
12:00 PM48 °FPartly sunny.6 mph66%30.45 "HgN/A
Weather by CustomWeather, © 2016

See weather overviewHow to use our weather pages